Regional Weather Roundup
Issued by NWS Nashville, TN

Home | Current Version | Previous Version | Text Only | Print | Product List | Glossary On
Versions: 1 2 3 4 5 6 7 8 9 10 11 12 13 14 15 16 17 18 19 20 21 22 23 24 25 26 27 28 29 30 31 32 33 34 35 36 37 38 39 40 41 42 43 44 45 46 47 48 49 50
017
ASUS44 KOHX 140010
RWROHX
MIDDLE TENNESSEE HOURLY WEATHER ROUNDUP
NATIONAL WEATHER SERVICE NASHVILLE TN
600 PM CST SAT FEB 13 2016

NOTE: "FAIR" INDICATES FEW OR NO CLOUDS BELOW 12,000 FEET WITH
NO SIGNIFICANT WEATHER AND/OR OBSTRUCTIONS TO VISIBILITY.

* THESE REPORTS ARE NOT UNDER NWS QUALITY CONTROL AND MAY NOT
  REPORT WEATHER SUCH AS PRECIPITATION AND FOG.


TNZ005>011-023>034-057-059-062>066-078-080-140100
...NORTHERN MIDDLE TENNESSEE...

CITY           SKY/WX    TMP DP  RH WIND       PRES   REMARKS
CLARKSVILLE    CLOUDY    26   4  38 N8        30.51S WCI  18
CROSSVILLE     CLEAR     23   2  40 N6        30.39R WCI  16
DICKSON        CLOUDY    25   1  36 NE5       30.46F WCI  19
LIVINGSTON     CLEAR     24   5  44 N3        30.43R
NASHVILLE      MOCLDY    27   1  32 NE9       30.49F WCI  18
PORTLAND       MOCLDY   N/A N/A N/A NW5       30.48S
ROCKWOOD       MOCLDY    23   2  40 N5        30.38S WCI  17
SMYRNA         PTCLDY    27   3  35 N7        30.50F WCI  20
SPARTA         CLEAR     27   7  43 N3        30.45R
$$
TNZ056-058-060-061-075>077-079-093>097-140100
...SOUTHERN MIDDLE TENNESSEE...

CITY           SKY/WX    TMP DP  RH WIND       PRES   REMARKS
COLUMBIA       PTCLDY    30   7  37 N3        30.44F
FAYETTEVILLE   CLEAR     28   5  37 N8        30.44R WCI  20
LEWISBURG      MOCLDY    26   2  35 NE6       30.47R WCI  19
MCMINNVILLE    CLEAR     27   5  39 N7        30.44R WCI  19
SHELBYVILLE    CLEAR     27   9  46 N7        30.47F WCI  19
TULLAHOMA      CLEAR     25   1  36 N8        30.43F WCI  16
WINCHESTER     CLEAR     27   7  43 N6        30.44R WCI  20
$$


...KEY TO REMARKS...
VSB - VISIBILITY IN MILES
WCI - WIND CHILL INDEX
HX  - HEAT INDEX





USA.gov is the U.S. government's official web portal to all federal, state and local government web resources and services.